Wind_Speed
14 14 14 13 12 12 12 12 11 12 11 11 11 12 13 13 12 11 10 9 10 10 10 10 9 9 9 9 9 9 10 11 12 14 13 8 10 13 13 16 20 22 24 25 24 21 19 17 16 17 16 12 8 9 9 6 3 2 0 1 1 0 1 2 2 2 1 4 9 11 8 7 8 8 11 12 10 12 11 9 9 7 8 13 17 26 28 26
14 14 13 12 12 12 12 11 11 11 11 11 11 11 12 13 13 12 11 10 10 10 9 9 9 8 9 9 9 9 10 11 13 15 10 6 10 15 16 18 22 24 26 27 27 24 21 19 18 19 17 10 7 8 8 5 4 4 1 1 1 1 2 3 5 3 2 4 11 12 9 8 9 11 12 11 11 13 11 10 11 13 14 15 21 28 27 27
14 13 13 12 12 11 11 11 10 10 11 11 11 11 12 12 13 13 12 11 10 10 9 9 9 8 8 9 9 9 9 11 13 12 7 8 12 15 18 20 22 24 25 27 27 24 20 19 20 20 16 8 6 7 7 6 4 4 4 2 2 2 3 4 5 4 3 6 13 12 9 9 10 12 11 10 13 12 10 12 14 16 18 21 25 27 26 27
14 13 13 12 12 12 11 10 9 9 10 11 11 12 12 12 13 13 12 11 10 9 9 8 8 8 8 8 8 8 8 9 6 4 4 9 12 15 20 20 21 23 23 25 25 22 17 17 19 19 15 7 6 6 6 8 4 3 5 3 1 1 4 4 5 1 3 8 14 12 10 9 11 10 10 13 12 9 10 13 16 20 24 26 28 28 27 27
13 13 13 13 13 12 12 11 10 9 9 10 11 11 12 13 13 13 12 12 11 9 9 8 8 7 8 7 7 7 5 3 1 2 3 8 12 15 19 20 21 22 23 24 24 20 17 18 19 17 12 6 7 6 5 9 6 3 6 7 6 5 6 6 4 1 4 9 13 13 10 9 11 9 11 15 7 4 11 13 17 23 26 28 30 29 27 27
14 13 14 14 13 13 13 12 11 10 10 9 10 11 12 13 14 14 12 11 11 9 9 8 7 7 7 6 7 5 3 1 2 1 2 7 12 15 19 20 21 23 24 25 24 21 18 20 19 14 9 6 8 7 4 9 9 5 6 8 10 9 9 7 3 4 5 10 13 12 10 11 12 9 12 13 1 1 10 13 17 22 25 29 30 29 27 27
14 14 14 14 14 14 14 13 12 12 11 10 10 11 11 13 14 14 12 11 10 9 8 8 7 6 5 6 6 5 5 4 1 1 1 6 12 15 19 21 21 24 27 27 26 23 20 22 18 12 10 6 8 9 3 6 9 7 6 8 10 9 11 11 6 6 7 11 12 11 10 12 12 7 11 12 0 3 12 14 17 21 24 27 28 27 27 26
15 15 15 15 14 14 14 14 13 13 12 12 12 11 12 13 14 14 12 11 10 9 8 7 6 5 4 4 5 5 6 3 2 2 3 6 12 16 20 22 22 24 27 27 26 25 22 22 18 12 9 5 6 10 5 3 7 8 9 9 9 10 11 10 6 9 9 9 10 11 10 11 10 5 10 11 4 8 13 14 17 21 24 25 26 26 26 25
15 15 15 15 15 14 14 14 14 13 13 13 13 13 12 13 14 13 11 10 9 8 7 6 5 5 4 3 3 4 3 5 4 3 4 5 11 16 20 22 22 24 26 25 24 24 21 21 19 12 7 5 6 9 6 3 4 6 10 10 11 14 14 10 7 11 11 9 11 11 8 10 9 4 8 11 8 12 15 16 19 22 25 25 25 25 25 25
16 16 16 16 15 15 15 14 14 13 13 14 13 13 13 13 13 12 11 9 8 7 5 4 4 4 4 3 1 1 5 6 5 4 4 5 9 14 18 19 21 22 23 23 22 22 20 21 21 12 6 6 6 5 5 4 2 3 8 11 12 12 12 6 7 11 10 10 11 10 7 9 9 3 6 10 11 15 17 18 21 23 24 25 25 24 23 24
17 16 16 16 15 15 15 15 15 14 13 13 13 13 13 13 13 12 10 7 6 6 4 3 3 4 4 3 4 3 6 6 6 5 4 5 6 10 14 16 19 20 21 22 21 20 18 18 20 12 4 6 5 3 4 4 5 7 8 9 7 4 5 2 7 11 9 7 9 9 7 8 8 5 5 10 14 16 18 20 22 22 22 23 24 23 22 22
17 17 17 16 16 15 15 16 15 14 13 12 12 12 13 13 11 10 8 6 5 4 3 2 3 4 3 5 7 7 6 6 8 6 4 5 5 6 10 13 16 18 18 19 20 20 16 15 19 10 3 5 6 3 3 4 7 8 6 6 4 1 4 4 6 10 7 5 10 9 6 6 9 6 5 13 16 16 18 20 21 21 20 21 22 22 21 22
18 17 17 16 15 15 15 16 15 14 13 11 11 12 13 12 9 8 7 5 4 3 2 2 2 3 3 4 5 9 7 6 9 7 6 7 6 6 8 11 14 15 16 15 17 19 16 15 18 10 3 5 3 1 3 5 7 5 3 3 4 2 2 3 4 8 5 6 12 9 2 3 9 8 7 15 19 18 18 19 20 20 19 21 21 21 21 22
18 18 17 16 15 15 15 15 15 14 12 10 11 12 13 10 6 6 5 3 2 1 2 3 2 3 3 2 5 9 8 8 10 9 7 7 8 8 9 11 12 14 15 14 13 17 17 16 16 10 5 3 1 4 5 3 3 2 2 1 2 2 1 2 3 8 5 5 11 8 2 2 4 10 11 15 21 20 19 18 19 19 19 20 21 21 21 21
19 18 18 17 16 15 15 14 14 13 11 10 10 12 12 8 5 4 2 1 1 0 1 3 3 3 4 2 7 9 8 8 9 10 8 7 8 8 10 13 13 14 15 14 13 15 17 16 13 8 5 3 3 3 2 1 0 1 2 2 1 2 1 2 4 8 4 5 10 7 3 1 3 8 14 16 20 21 19 19 19 19 19 20 21 21 20 20
20 19 18 18 16 15 14 13 13 12 10 9 10 11 10 7 4 1 2 3 1 0 1 3 3 2 3 1 7 7 7 6 6 9 9 7 8 6 9 13 14 14 13 12 12 15 18 14 9 6 3 3 2 1 1 2 2 1 2 1 1 1 0 2 3 7 5 5 10 8 3 1 5 5 14 16 20 21 19 19 20 20 20 20 21 21 20 19
22 21 19 18 17 15 14 13 12 11 9 7 8 9 7 4 3 3 4 3 1 2 3 4 3 3 2 4 6 5 4 4 5 7 9 10 9 6 9 13 13 13 13 13 11 13 17 12 7 5 3 2 1 1 3 5 4 3 2 1 1 1 1 1 2 6 7 5 8 8 6 1 4 5 12 15 18 19 18 19 20 20 20 20 20 19 20 20
24 22 20 18 17 15 13 12 12 10 7 6 6 6 4 1 2 3 2 2 2 1 3 3 3 2 3 6 5 4 4 4 5 6 8 11 10 8 9 12 14 15 14 12 9 10 14 9 6 4 3 4 3 3 5 4 4 4 3 2 2 1 1 0 1 5 9 6 6 8 8 7 2 6 10 14 17 18 17 18 19 20 20 20 20 19 20 21
25 24 21 19 18 15 13 12 11 9 6 4 4 3 2 1 3 4 2 3 3 2 2 3 5 2 1 5 4 2 2 4 6 8 8 10 12 9 7 10 17 17 13 10 7 8 11 7 6 6 6 7 5 5 4 2 3 5 3 2 2 1 1 1 2 3 9 7 6 8 8 10 7 6 9 13 16 17 16 17 17 19 20 21 21 20 20 21
26 25 23 21 18 14 12 11 10 8 4 2 3 3 2 2 2 4 5 8 8 7 6 6 7 7 3 3 3 2 3 6 7 9 9 10 13 11 8 12 17 13 8 8 7 9 10 7 7 8 7 7 6 7 4 2 3 3 3 3 2 0 1 1 2 1 8 6 6 9 9 9 8 6 9 13 15 16 16 17 17 19 21 22 23 22 21 22
26 25 23 21 17 13 10 10 9 6 2 2 2 2 1 2 0 1 5 8 6 6 8 8 9 12 8 3 1 3 4 6 7 9 9 10 13 11 10 12 11 7 5 7 9 7 8 7 7 6 6 7 5 6 5 2 1 1 1 1 0 1 1 1 3 1 6 6 3 6 8 10 10 7 9 13 15 16 19 20 21 23 23 23 23 23 23 22
26 25 23 20 15 10 8 8 7 3 3 4 3 3 3 3 1 2 4 5 6 6 7 8 10 12 10 5 3 1 2 4 7 8 9 13 14 10 9 9 7 5 5 7 8 7 7 7 6 8 7 6 3 3 5 3 3 2 2 2 1 1 1 1 3 2 5 5 2 3 6 9 10 8 10 15 16 18 22 24 25 26 23 21 23 23 23 22
24 24 22 18 13 9 7 6 5 3 6 7 6 5 3 2 2 3 4 5 7 6 4 7 10 10 8 5 3 3 2 3 6 9 12 17 15 11 11 8 5 6 7 7 8 8 6 5 8 9 7 7 4 3 4 3 3 3 2 4 2 1 2 1 4 4 4 5 3 1 5 6 7 7 9 16 19 18 20 23 23 23 24 25 25 24 23 24
23 22 20 17 12 8 7 5 3 4 10 9 7 6 3 1 1 4 4 4 4 4 3 5 8 8 6 4 2 3 4 3 5 10 15 17 14 10 9 7 5 6 7 6 7 7 4 4 10 9 7 7 5 4 4 4 4 3 4 5 3 2 3 1 3 2 3 6 3 2 4 4 4 6 6 11 16 16 17 19 19 20 23 25 24 22 22 24
22 21 19 16 12 10 8 4 2 6 11 10 7 6 3 0 2 4 4 2 2 2 2 2 5 5 5 5 3 3 4 2 3 9 16 17 15 10 6 5 5 5 6 6 6 7 3 5 10 9 6 7 5 5 5 5 4 3 5 7 6 5 5 2 1 3 2 3 2 2 4 1 1 4 5 6 11 13 14 17 19 20 21 22 23 23 23 24
20 19 17 15 14 13 7 1 1 5 10 9 7 5 3 1 3 4 3 1 1 2 1 2 2 5 5 5 6 6 4 2 2 6 14 14 12 10 6 4 2 3 6 6 4 4 3 5 8 8 8 7 6 6 5 5 5 3 4 7 8 7 6 4 1 2 3 0 1 1 4 2 0 1 2 2 8 11 12 15 18 20 21 23 25 25 25 24
18 17 16 15 15 13 5 1 0 4 9 8 6 4 3 3 4 4 3 1 2 2 1 1 1 5 5 5 9 7 3 6 7 6 8 10 10 9 7 4 3 3 5 5 2 2 4 6 6 7 8 7 6 5 6 8 6 2 3 5 9 10 9 7 4 3 2 2 1 3 3 4 2 2 5 2 5 8 10 12 15 18 21 24 26 26 27 26
16 14 14 14 15 14 7 1 2 5 7 5 5 5 5 5 4 3 2 1 1 2 1 1 1 4 4 7 9 4 3 7 6 5 5 5 5 7 7 5 5 5 4 5 5 2 4 6 7 8 6 5 6 5 7 10 7 2 4 5 7 8 8 7 5 3 0 2 3 3 3 4 1 4 7 4 1 2 4 7 11 15 19 22 25 27 28 28
14 13 13 14 13 13 9 4 3 4 4 2 4 5 6 5 2 1 1 1 2 2 1 1 2 3 4 5 4 5 5 4 3 4 5 5 4 3 4 2 3 6 4 2 4 3 1 3 5 6 5 4 5 5 9 12 7 2 4 4 4 3 3 3 3 2 2 2 4 4 6 5 1 5 7 6 6 8 8 7 9 14 19 22 24 26 28 28
14 15 15 14 12 11 9 5 2 1 1 1 2 3 3 3 2 2 1 2 2 1 2 1 0 0 1 4 4 7 6 7 7 6 9 10 11 9 7 6 4 5 3 1 1 2 2 1 3 4 1 2 2 2 8 12 7 5 6 4 4 3 3 2 1 2 2 4 4 5 8 6 1 4 6 6 7 9 9 9 9 11 17 22 24 25 27 27
15 16 16 14 11 10 9 6 4 2 2 2 1 2 3 2 1 0 3 2 2 2 2 2 1 2 3 5 3 5 6 8 8 7 8 9 11 13 8 4 3 2 3 2 2 2 3 4 3 2 3 4 1 1 2 6 6 6 6 5 4 3 2 2 2 2 4 4 2 2 6 6 1 3 5 7 9 11 10 9 11 12 13 20 24 25 26 27
14 15 14 13 11 10 9 8 7 5 4 3 1 2 3 1 1 2 2 2 2 3 3 1 2 3 6 8 7 5 5 6 7 8 7 5 7 10 7 4 2 2 4 2 3 3 4 3 2 1 3 8 2 3 3 3 6 6 6 5 5 4 4 5 3 4 5 3 1 0 3 4 3 4 6 8 9 12 11 10 12 14 13 13 22 25 25 26
13 13 12 12 11 10 10 9 9 8 6 3 1 2 2 1 3 2 3 3 2 2 3 2 3 3 5 8 7 6 7 6 5 5 5 5 6 6 5 8 5 2 2 1 4 4 4 2 5 1 1 8 6 3 3 4 6 8 7 7 6 4 6 7 4 3 4 3 1 0 2 3 5 4 7 8 8 12 13 13 13 14 15 10 14 23 25 25
10 11 11 10 10 10 11 11 10 8 3 2 3 2 2 3 3 2 3 3 2 2 3 2 1 5 7 6 2 3 6 8 6 6 5 4 5 4 4 9 10 4 0 0 2 1 3 4 4 4 1 6 6 2 2 1 5 6 5 5 6 4 4 5 5 5 5 4 3 2 2 3 6 5 7 9 9 13 14 15 17 17 19 15 4 15 22 25
8 11 12 11 11 12 12 11 9 7 7 8 6 3 4 3 2 2 3 4 3 3 4 3 2 5 7 4 3 4 5 4 4 7 8 6 5 5 5 7 11 7 1 0 1 1 0 3 4 4 2 4 5 3 3 1 4 3 1 3 4 3 2 1 2 2 3 4 4 2 2 2 4 6 7 12 10 14 17 18 21 22 22 19 13 4 9 18
7 11 14 14 14 14 12 9 8 9 10 9 6 5 4 2 2 2 3 4 3 4 5 3 4 5 4 2 4 6 7 5 2 3 6 6 5 7 6 4 7 8 3 0 2 0 1 3 4 4 1 4 7 3 2 2 2 3 4 4 1 1 1 1 2 1 1 5 4 2 3 4 3 4 7 14 12 14 18 19 21 22 22 21 18 16 11 8
6 11 15 16 17 15 10 8 10 13 15 11 7 5 1 1 2 3 4 5 4 4 2 1 3 3 2 3 3 5 5 4 3 3 3 3 4 7 8 4 3 6 5 2 1 1 0 3 4 4 1 6 10 2 3 7 4 2 4 3 2 1 1 0 2 3 5 8 3 4 5 5 1 1 8 15 14 16 17 17 19 21 23 22 20 19 17 11
6 10 15 17 16 14 10 9 11 17 20 12 6 5 1 2 4 4 6 5 3 1 2 3 2 2 1 2 3 5 4 1 3 3 2 2 3 4 7 4 3 8 8 4 1 1 1 2 3 3 2 5 9 1 3 7 8 2 2 2 1 2 2 1 2 4 7 7 4 4 6 6 4 4 9 13 14 15 15 15 16 19 21 21 20 20 21 16
6 8 13 15 13 14 13 10 12 19 17 7 3 4 1 2 6 10 9 4 1 1 2 3 3 3 4 3 2 5 6 3 2 2 2 3 2 4 7 4 4 10 11 5 1 1 2 0 3 3 4 3 5 5 2 5 5 3 2 1 2 1 1 1 1 1 4 5 4 4 4 4 5 6 9 10 11 13 14 13 13 16 20 19 19 20 20 19
6 6 9 10 11 12 9 10 15 16 10 3 2 3 2 2 5 13 15 7 3 4 3 2 3 3 5 5 4 4 6 6 4 2 3 3 1 3 7 6 4 8 9 4 3 1 2 1 1 4 5 1 2 6 5 6 5 2 2 3 3 2 1 1 1 2 1 3 4 5 4 4 4 5 7 8 10 11 12 12 12 15 18 18 19 20 19 20
5 4 6 9 11 10 7 10 13 9 3 2 3 3 3 4 5 12 15 12 9 9 7 5 5 4 4 5 4 3 3 5 5 4 4 4 3 2 7 9 6 6 6 2 4 4 2 1 1 2 4 4 5 3 3 6 7 6 5 3 3 2 1 3 3 1 1 1 2 4 5 5 4 4 5 7 8 10 12 12 12 15 18 19 20 21 22 23
8 3 5 9 10 9 7 10 6 3 3 4 3 4 4 5 6 9 12 11 9 8 9 7 6 6 4 4 4 3 3 5 5 4 5 5 6 3 8 13 8 5 4 1 2 4 2 2 4 4 4 4 5 3 3 4 4 5 7 5 3 2 2 1 3 3 2 1 1 3 5 5 4 5 5 7 8 10 12 13 12 14 17 19 21 23 26 28
12 7 7 8 7 6 8 8 3 3 5 3 2 5 6 6 7 8 9 10 7 5 7 7 4 5 5 4 3 3 3 5 5 4 4 5 7 6 10 14 8 3 4 1 1 3 1 1 3 4 3 1 4 2 2 3 2 2 6 7 5 3 3 2 1 1 2 2 2 3 4 4 4 5 6 7 9 11 14 15 14 14 16 18 20 22 26 31
13 14 14 11 5 2 5 4 2 4 4 4 5 6 7 7 9 10 8 9 7 3 4 5 5 5 5 4 4 3 2 3 4 4 3 2 4 7 13 17 12 5 5 2 1 3 2 1 1 3 3 2 4 4 2 2 3 3 4 7 8 7 4 1 0 0 1 2 1 2 5 5 3 4 5 8 10 12 15 16 15 16 17 18 20 21 25 31
6 9 16 17 11 9 8 4 4 5 3 4 7 6 5 5 9 11 9 8 9 5 3 4 5 5 5 4 6 6 5 4 3 1 2 3 3 6 13 17 14 9 8 5 2 2 2 1 1 1 2 3 2 1 2 1 2 2 3 7 8 10 8 2 1 0 2 1 2 1 5 6 4 4 6 8 9 11 13 16 16 17 18 18 19 21 24 29
3 3 7 13 16 17 13 7 5 4 2 3 5 5 5 3 5 11 10 8 10 10 6 5 4 4 5 6 7 8 9 8 6 3 2 2 2 3 10 15 15 12 10 9 7 2 2 3 3 2 3 1 2 3 1 1 1 1 4 7 7 8 8 3 0 1 2 3 3 3 3 5 5 6 6 7 8 9 11 14 16 17 18 19 19 20 21 26
4 2 2 4 8 11 10 9 7 3 2 1 2 3 5 3 3 8 10 7 8 9 7 6 5 3 4 5 6 6 7 7 8 6 3 2 2 1 7 12 14 14 11 9 8 3 3 3 3 5 7 5 5 6 2 1 3 3 4 5 6 7 7 5 3 3 1 2 4 2 1 3 5 5 5 6 6 7 9 13 14 15 17 18 19 20 22 26
5 3 3 3 2 3 4 6 7 6 5 3 2 1 4 5 4 5 6 5 7 8 4 5 8 7 4 3 3 3 4 5 6 3 1 2 1 0 4 7 10 13 10 8 8 4 3 3 2 4 7 6 5 6 4 3 3 2 2 3 4 5 5 5 4 2 1 1 4 3 2 4 5 4 5 5 5 7 8 10 11 12 15 17 19 21 23 25
7 6 5 5 4 2 3 3 4 7 7 4 3 3 3 5 6 3 3 3 5 7 5 4 6 7 5 3 3 3 2 2 4 2 1 2 2 1 2 2 5 10 8 6 6 3 1 3 3 3 6 6 5 5 4 5 3 2 2 3 4 4 4 3 2 1 1 3 5 4 6 7 4 3 4 4 4 6 7 8 11 14 16 17 19 21 22 23
7 7 6 8 8 6 6 5 3 5 6 4 3 3 3 4 5 3 3 4 3 4 4 6 6 6 6 5 7 6 2 2 4 2 2 1 1 1 1 0 1 5 6 3 3 2 1 2 3 2 4 4 3 3 3 4 4 3 3 3 2 2 2 1 2 2 2 3 3 4 8 7 3 3 4 4 4 5 7 9 13 15 17 17 18 20 21 22
10 10 8 8 6 6 6 5 3 2 3 3 2 2 2 3 4 3 4 6 5 3 3 6 7 5 6 7 9 7 4 3 5 4 4 2 1 2 1 1 2 1 4 3 2 2 1 2 2 2 2 3 2 1 3 3 1 1 2 4 3 1 1 1 2 1 1 2 2 2 5 5 3 3 4 3 4 6 9 10 12 13 15 17 18 19 20 21
10 9 8 7 4 4 4 2 2 2 3 2 2 2 2 2 1 1 3 6 7 5 5 5 5 4 4 6 7 5 2 2 2 3 4 3 3 4 3 3 2 1 2 1 2 2 1 2 3 2 2 3 2 2 4 2 2 3 2 4 3 1 2 1 1 2 1 0 1 1 3 4 3 3 2 2 4 7 9 10 10 12 13 15 17 18 19 20
Wind_Direction
338 335 335 334 336 337 335 334 332 331 333 337 340 338 336 335 337 339 340 336 324 316 315 314 308 298 293 292 289 286 286 282 279 270 262 252 222 213 202 191 186 182 181 178 179 180 172 170 169 168 163 158 163 174 193 207 230 284 274 264 340 320 353 19 352 347 74 159 166 168 163 144 141 144 136 133 130 134 133 117 120 111 120 143 153 156 154 155
341 337 335 334 336 338 338 336 332 330 329 332 335 336 336 333 334 335 338 337 325 317 312 314 310 303 299 293 292 291 289 285 281 277 266 231 208 204 194 188 187 184 182 181 184 185 179 173 169 169 162 155 163 175 195 204 215 242 252 286 256 233 292 317 315 293 236 160 163 172 166 161 157 152 150 145 148 149 135 128 123 111 120 134 148 154 154 158
347 342 339 339 341 342 341 340 336 331 329 328 329 332 333 332 332 332 334 335 328 317 310 311 309 306 301 294 297 297 297 298 287 280 256 213 205 196 191 190 188 185 185 187 187 190 189 179 173 169 160 157 166 172 192 194 203 223 225 271 223 230 286 314 317 273 229 154 160 170 166 173 167 156 163 156 157 165 153 150 145 135 138 142 148 154 156 161
355 350 347 348 348 347 345 343 339 334 330 326 327 328 328 329 329 330 332 332 327 317 309 307 307 306 302 299 300 303 311 311 289 259 219 201 200 193 190 190 187 184 185 188 188 190 192 185 175 168 163 161 170 175 197 200 200 199 213 254 210 238 293 325 344 295 190 161 160 161 165 178 173 165 169 157 156 181 176 164 158 151 150 150 153 157 160 163
2 358 356 355 354 352 349 346 344 339 332 326 325 325 326 326 326 328 330 329 324 316 308 304 306 306 304 304 300 309 322 322 129 161 208 193 193 190 187 188 185 182 181 184 183 181 188 186 172 165 167 162 168 184 212 207 208 227 235 256 260 269 286 307 324 230 151 153 156 159 170 173 167 174 180 171 166 194 179 169 161 157 156 157 157 159 163 166
7 5 1 359 357 355 353 350 348 343 336 328 323 322 322 322 323 325 327 327 321 312 308 305 305 303 304 304 301 305 292 299 83 115 216 187 188 184 183 183 182 179 178 179 176 174 181 178 169 164 169 166 176 188 202 200 209 243 251 256 261 263 269 285 275 208 166 159 164 167 167 157 166 185 190 188 215 108 167 164 162 164 162 159 159 161 165 169
6 5 1 359 357 356 353 351 349 345 340 332 326 322 318 318 320 323 326 325 317 310 307 307 306 301 299 296 301 297 272 283 15 76 134 179 182 179 178 177 179 177 177 178 173 175 178 173 171 166 165 166 188 196 180 188 206 239 264 265 272 269 260 268 252 211 189 175 169 162 157 161 176 188 187 192 197 142 168 164 165 165 162 159 160 164 167 170
2 359 356 354 354 352 349 347 347 344 339 334 329 322 316 314 316 321 324 321 315 308 304 309 306 293 286 287 300 299 274 246 182 109 94 161 170 173 175 172 176 176 178 182 178 179 176 172 172 165 172 173 180 194 187 190 206 228 257 270 281 283 275 272 239 200 184 171 161 156 160 169 177 174 183 190 160 159 167 163 165 163 161 161 163 166 169 172
358 354 352 350 349 348 345 343 342 341 338 334 330 321 316 314 315 318 320 318 313 305 303 308 301 282 276 280 297 295 234 172 172 138 97 136 155 169 175 172 173 175 178 183 185 184 176 175 174 164 178 176 169 190 195 217 206 216 249 274 286 291 295 284 218 186 172 160 160 161 161 166 169 159 184 191 168 161 163 161 166 164 164 166 167 169 172 174
355 353 351 349 347 345 342 340 337 337 336 333 327 320 317 315 316 317 318 320 312 306 303 299 292 275 271 260 255 231 162 156 164 151 113 114 144 166 176 176 174 174 177 180 188 189 184 184 176 163 166 168 172 182 185 216 277 277 269 282 283 296 312 288 183 168 160 155 167 165 154 165 173 186 195 187 173 164 159 160 166 166 167 170 170 172 175 176
354 351 350 349 347 344 340 338 336 336 336 332 323 319 319 317 320 319 319 322 314 310 300 292 288 274 266 231 215 173 152 158 158 153 128 113 131 159 174 181 178 177 177 179 186 189 193 190 173 162 154 168 178 184 202 235 305 305 289 293 279 308 3 63 146 155 152 152 169 153 137 163 177 210 215 178 170 167 160 160 166 169 170 173 173 174 177 179
353 350 349 348 346 342 339 337 335 337 337 330 321 320 322 322 322 318 317 322 321 318 297 284 285 275 256 239 224 178 156 163 159 154 147 139 128 145 174 185 184 187 184 182 185 185 190 183 173 170 130 160 175 193 240 281 303 293 283 296 282 331 47 80 123 157 161 152 163 152 139 181 195 206 196 172 169 168 164 163 168 172 172 173 175 177 180 182
353 350 349 347 344 340 337 335 333 337 337 329 322 324 327 327 322 314 309 307 316 322 290 268 288 283 254 256 216 174 162 163 164 162 162 164 158 158 182 191 191 195 196 196 189 181 180 173 175 181 153 155 165 247 303 307 292 276 252 286 286 289 71 84 122 161 165 150 165 179 181 180 197 194 165 169 171 166 168 169 171 174 174 177 179 181 183 186
353 350 349 347 343 338 335 332 330 336 337 328 326 331 333 328 318 315 302 290 317 327 257 255 288 288 260 230 173 175 168 161 171 175 173 175 173 172 185 193 193 195 198 204 196 182 176 173 180 189 192 203 296 311 315 313 286 283 214 228 290 287 84 85 160 167 164 155 173 201 244 86 165 181 167 169 171 168 171 173 175 178 178 182 185 186 186 189
350 348 346 345 342 337 333 329 326 333 336 329 333 337 336 330 321 318 290 138 50 57 248 266 283 295 284 221 167 179 176 169 179 185 186 184 182 178 182 189 190 190 193 196 196 187 179 178 185 189 202 229 277 301 308 256 58 353 232 192 206 288 70 95 175 182 173 157 183 206 239 42 62 167 168 169 174 173 174 176 178 181 182 184 187 191 190 190
347 345 343 341 339 334 329 326 321 328 336 332 338 340 338 347 351 333 145 120 102 250 256 263 272 290 299 165 164 183 191 188 185 189 198 201 197 183 172 182 186 186 187 184 183 187 185 185 190 195 214 216 225 275 199 198 169 132 247 217 139 253 172 115 161 197 182 146 186 216 253 34 45 152 166 168 177 177 177 179 180 183 185 186 187 192 193 191
346 344 340 336 334 330 325 323 317 323 335 335 341 341 342 15 65 107 115 94 27 287 265 254 268 274 234 153 158 167 165 180 188 191 197 198 201 189 163 168 178 177 171 167 161 172 181 184 191 199 222 216 179 208 196 196 181 162 207 185 83 272 249 153 147 191 187 167 192 215 245 265 65 132 165 171 178 180 181 182 182 184 187 189 188 191 194 193
343 340 337 332 331 328 321 317 315 319 330 336 338 335 333 31 125 132 100 46 25 312 277 238 211 233 196 173 171 154 124 151 181 182 185 193 194 189 168 154 162 160 152 156 148 152 167 174 191 191 197 205 197 204 199 189 177 161 173 172 128 130 213 256 78 166 181 191 199 202 232 245 195 137 166 178 180 183 185 184 186 187 189 192 192 193 195 197
337 335 335 332 330 328 319 311 314 316 321 335 333 308 297 291 238 230 244 300 290 257 279 210 195 237 183 172 174 157 145 162 180 176 172 187 187 181 178 153 151 150 147 156 155 159 163 158 183 197 201 196 187 202 198 97 126 129 116 124 114 127 185 251 349 177 185 194 205 205 226 242 227 171 173 183 184 189 189 186 189 191 193 196 197 198 197 199
335 333 333 333 333 330 316 305 309 312 307 318 319 276 273 326 254 236 269 284 274 256 259 245 239 274 296 169 150 105 154 166 178 181 173 184 184 170 163 152 147 150 157 155 154 171 174 170 189 197 187 171 173 201 202 84 102 113 108 114 89 22 194 191 347 221 194 206 217 214 231 248 240 199 182 183 184 192 193 190 192 194 196 198 199 200 200 202
334 331 332 336 336 332 313 299 302 306 263 216 280 241 183 41 55 288 308 296 286 272 264 257 255 262 260 213 151 66 125 153 162 179 182 179 176 161 149 153 151 158 169 144 134 152 183 198 191 170 150 153 175 195 192 175 163 191 197 157 134 221 242 34 7 329 200 218 228 209 237 252 247 226 189 181 186 197 196 193 197 199 198 199 199 200 201 203
332 332 336 341 340 330 307 292 294 283 190 180 188 176 139 80 53 345 332 303 299 301 270 250 251 252 246 236 255 312 137 153 149 166 177 169 172 168 151 166 178 157 148 150 140 147 191 206 163 143 143 140 132 159 173 183 189 203 218 237 219 202 274 63 36 16 190 214 265 200 235 252 250 236 198 190 196 203 200 196 200 200 198 200 201 200 199 201
336 337 343 349 345 326 304 290 285 227 176 168 167 166 146 97 51 350 332 293 298 308 274 241 245 250 247 240 243 229 185 165 154 167 176 169 173 179 166 174 181 144 155 178 171 166 190 192 154 144 146 145 128 137 162 167 184 198 203 227 217 131 257 164 63 46 168 218 295 268 250 262 256 241 212 206 207 209 205 201 202 198 197 202 204 201 198 198
341 344 351 354 348 330 310 295 276 192 172 170 170 168 155 131 349 335 320 287 293 311 299 241 236 243 240 218 194 191 180 166 156 168 179 176 171 174 172 167 155 150 167 186 185 175 153 139 151 149 152 165 162 153 177 201 200 194 206 233 232 205 245 244 39 15 201 225 259 282 269 265 250 243 230 214 211 212 207 200 201 197 197 204 208 206 201 201
344 351 355 354 353 341 324 305 237 177 174 173 172 175 169 133 319 328 325 292 264 307 313 217 222 223 199 188 178 159 158 162 159 167 179 182 174 167 161 157 168 173 162 159 181 183 141 130 152 153 159 171 175 179 196 216 222 212 205 221 230 227 238 238 26 330 268 212 191 265 268 222 164 247 243 208 203 211 203 198 202 198 194 200 207 209 206 205
350 358 0 360 1 354 345 359 133 171 179 178 171 181 201 268 319 326 328 312 93 350 319 160 183 184 177 180 160 146 145 116 86 159 176 185 182 170 157 149 178 175 152 149 178 197 146 142 161 161 164 174 195 209 195 197 226 239 194 203 214 217 225 223 224 282 268 249 100 261 272 282 313 288 298 219 200 205 201 203 207 201 194 198 205 208 206 206
355 4 5 5 8 5 11 116 86 169 177 182 185 196 226 266 303 311 296 198 91 8 324 130 139 167 172 164 152 151 156 125 102 103 150 179 188 183 177 169 167 140 145 157 174 191 154 151 160 154 159 175 199 211 187 191 220 228 153 185 202 207 212 210 210 238 283 328 277 212 240 276 280 10 4 320 217 209 208 215 215 207 201 201 205 207 206 205
359 5 5 5 8 10 16 57 132 154 160 174 201 218 242 262 291 296 269 153 57 3 360 359 149 148 148 158 151 128 112 135 121 68 94 143 167 183 189 189 175 141 136 186 185 155 157 175 176 166 173 190 202 206 179 187 218 215 162 175 192 206 207 199 207 219 307 293 257 187 193 240 255 30 16 12 352 313 274 257 240 225 214 209 209 208 207 207
356 358 358 357 359 7 19 54 115 143 149 170 209 233 245 246 259 248 216 70 20 350 12 47 123 119 122 145 115 62 81 95 56 60 83 82 82 140 162 136 140 129 107 224 201 123 120 205 178 171 200 212 205 203 176 185 210 176 153 153 148 161 164 176 203 174 136 236 244 189 192 224 22 36 21 24 17 355 332 311 275 243 227 218 216 213 210 208
351 353 354 351 350 3 20 37 53 212 237 227 228 242 227 202 200 209 139 54 6 343 331 323 250 316 133 138 68 39 54 44 34 64 69 58 60 67 84 90 96 126 110 25 204 98 71 157 111 109 228 263 233 208 183 191 184 127 147 162 136 114 111 126 121 131 167 213 231 203 200 221 259 50 30 20 1 346 333 328 312 269 235 221 218 218 214 210
354 358 360 360 0 7 18 25 19 351 324 328 281 210 168 157 226 188 80 49 336 6 354 325 348 25 80 112 78 31 48 41 23 39 53 45 48 44 42 62 57 112 141 136 163 85 81 124 108 69 27 17 249 178 153 191 171 143 166 180 162 134 135 150 123 172 209 202 215 206 197 214 228 53 25 9 360 353 343 333 331 315 266 228 217 217 216 214
2 5 7 10 13 14 13 14 15 13 356 345 4 155 174 160 54 52 25 334 335 9 352 343 16 51 85 83 61 28 55 55 25 42 59 40 48 47 34 26 2 197 170 166 173 129 102 94 23 253 54 23 344 184 114 145 178 182 186 184 181 161 164 184 172 190 211 194 88 33 194 189 108 63 17 6 7 3 355 343 337 335 315 253 220 213 213 214
6 9 11 12 13 12 9 4 2 360 349 337 86 130 170 101 59 26 333 345 30 8 348 358 9 45 92 85 66 37 53 56 13 37 59 39 61 73 58 40 13 250 173 151 177 157 150 117 19 20 92 8 348 208 151 150 180 191 189 186 190 175 173 184 169 168 202 194 148 334 216 165 126 78 19 10 5 3 0 356 351 350 347 316 233 214 211 211
9 12 14 14 11 8 4 1 2 3 15 111 131 131 95 74 43 333 331 351 341 335 359 1 28 66 71 69 59 21 53 55 29 40 57 43 53 41 28 32 20 3 357 78 159 182 182 153 34 19 342 353 4 360 344 139 166 179 186 189 193 194 188 185 177 176 176 157 131 167 206 161 143 117 37 18 5 6 6 5 6 7 6 1 289 216 212 212
14 16 23 24 20 16 9 10 26 51 95 115 106 65 65 67 345 319 350 336 310 331 354 0 57 80 75 56 31 19 41 60 36 45 54 56 55 23 356 5 9 9 315 209 120 312 113 103 14 341 284 339 4 357 336 202 165 142 163 204 197 211 220 145 168 181 154 140 131 161 176 70 122 134 40 17 12 13 12 11 14 12 10 15 21 351 233 220
10 20 31 32 30 26 22 37 73 91 100 104 84 52 63 63 328 316 335 321 316 322 322 5 41 61 88 69 31 27 36 51 31 42 55 57 54 27 1 344 1 9 356 28 100 334 130 98 9 332 176 25 2 339 11 16 197 150 162 191 165 350 318 121 137 45 147 176 162 136 126 69 125 157 18 9 13 16 14 15 15 12 11 16 18 7 347 274
9 24 33 35 36 35 41 72 98 100 90 82 72 65 97 50 356 306 307 309 298 303 302 73 30 18 86 81 31 9 17 46 30 27 51 40 37 13 351 331 346 6 357 321 63 24 130 122 56 11 50 18 356 293 115 39 7 182 167 157 89 40 313 297 163 155 186 189 154 88 101 68 73 198 4 3 9 13 11 11 12 14 14 14 9 360 355 333
23 37 37 35 39 45 63 89 105 97 84 72 77 90 106 17 21 340 320 311 283 317 43 77 35 351 55 102 56 4 348 31 28 38 69 39 35 7 348 330 334 2 357 314 248 70 341 137 106 33 345 355 360 307 155 30 21 47 102 87 84 194 191 195 185 174 188 185 131 109 111 64 25 354 356 359 6 7 6 7 11 15 15 11 6 359 356 350
40 46 34 30 45 59 70 93 102 92 81 65 75 84 36 4 13 359 357 349 292 15 46 58 49 45 48 79 103 30 27 63 62 62 67 27 42 24 6 344 314 348 356 346 12 107 324 164 134 25 343 303 10 32 5 355 15 68 100 70 3 302 206 187 190 193 199 179 137 141 138 72 34 359 354 2 7 8 10 10 9 13 14 12 9 3 359 359
50 51 29 31 53 52 52 81 79 73 70 60 57 49 9 351 357 6 19 36 38 25 56 60 36 72 72 69 85 52 43 55 59 72 55 23 79 66 20 3 311 330 341 353 42 37 300 19 119 14 2 308 57 43 32 13 14 34 60 45 25 346 278 152 76 13 275 186 158 155 136 76 42 3 359 8 10 11 16 15 12 13 13 14 15 12 8 9
57 61 24 31 37 11 10 66 63 51 58 68 48 23 10 15 360 5 23 46 59 50 65 74 54 74 91 74 67 53 56 62 50 63 72 31 38 62 13 357 315 309 327 345 33 18 344 34 81 41 38 81 97 60 26 27 26 37 49 28 2 356 239 187 168 121 19 349 167 151 131 86 40 6 4 12 9 9 12 10 12 15 14 16 17 18 21 22
64 63 354 10 14 0 38 67 45 11 68 66 45 23 16 19 5 356 12 36 54 53 56 60 53 54 63 67 63 54 73 69 39 52 85 58 45 38 355 352 332 311 344 33 14 3 359 54 67 76 58 83 121 109 23 21 19 44 50 30 359 8 344 241 182 145 101 67 92 110 115 99 48 11 9 19 18 17 16 13 14 16 16 18 18 21 30 35
57 46 1 352 349 4 66 74 35 50 65 59 69 47 39 37 16 4 11 21 31 41 45 44 38 42 44 50 67 76 71 60 41 55 97 83 50 23 358 7 10 345 359 40 13 360 5 44 62 91 82 121 178 195 11 22 358 47 41 23 16 18 358 354 35 104 115 116 134 128 122 113 61 19 16 29 33 33 29 23 20 19 16 17 20 22 30 40
60 50 34 15 344 6 75 75 78 85 64 50 63 45 44 52 30 21 23 22 22 32 53 45 33 43 50 50 64 72 46 59 67 52 67 101 45 14 14 23 29 29 22 11 314 349 10 11 52 119 126 163 199 210 186 81 38 48 29 9 16 20 11 23 14 312 103 54 343 163 133 116 74 30 34 35 36 38 33 26 25 24 18 15 19 22 28 38
58 53 43 38 58 92 88 83 97 98 87 67 61 32 28 53 35 27 33 37 34 36 67 56 37 51 66 69 71 59 31 46 92 94 66 94 62 12 17 24 27 30 36 37 14 3 47 41 328 179 170 195 192 154 153 84 25 51 19 4 15 17 8 3 206 118 112 89 350 67 114 110 82 52 53 41 32 33 27 24 24 23 20 18 19 22 26 36
48 47 33 39 62 75 75 73 77 87 94 74 65 30 17 45 29 24 33 43 35 36 58 62 37 57 67 68 73 58 39 49 75 108 110 78 79 13 9 20 25 22 28 43 46 57 106 69 19 30 58 86 97 82 57 356 30 64 17 8 13 11 4 358 175 66 88 131 98 52 70 100 74 45 49 43 32 31 23 20 21 18 18 20 19 22 26 34
60 51 353 17 52 56 57 52 43 62 103 66 81 22 14 32 20 24 39 45 30 31 51 51 26 37 72 81 89 66 47 59 67 75 82 55 82 4 5 20 23 17 21 36 35 45 124 83 40 57 67 73 85 83 76 63 62 37 6 4 4 3 4 13 54 68 37 156 120 78 4 83 67 36 40 43 36 36 27 20 18 15 17 18 18 22 27 32
77 88 57 51 51 19 36 36 28 60 86 70 80 55 31 48 49 36 38 36 30 25 35 52 32 29 48 66 99 94 63 66 64 55 78 61 54 347 23 26 18 16 26 39 36 44 108 87 58 81 87 88 80 75 67 60 65 31 338 340 341 350 5 22 49 61 323 47 94 109 116 91 77 53 49 47 41 41 33 23 18 17 20 21 21 23 26 28
89 99 70 69 83 47 30 22 20 59 67 53 56 54 43 55 59 50 9 16 43 26 22 67 43 27 38 38 74 98 76 88 90 68 77 73 52 19 52 45 14 15 22 41 43 31 73 91 90 103 103 91 64 59 51 32 24 341 329 325 312 322 342 4 42 62 63 73 76 100 112 97 79 72 64 50 41 39 34 28 26 24 22 22 24 25 24 23
94 100 88 88 84 45 27 33 30 57 54 33 52 50 32 54 64 65 17 24 63 33 32 83 76 44 49 64 83 89 70 97 104 110 177 144 92 88 70 160 21 16 16 33 42 4 343 102 98 103 115 100 50 40 27 8 357 335 352 9 333 307 321 25 85 96 112 99 79 110 124 112 91 102 88 55 35 34 33 33 31 26 21 21 24 23 21 20
100 108 111 106 78 6 12 37 22 56 59 30 51 68 47 64 68 83 60 36 43 72 86 100 98 70 56 69 81 83 78 90 96 118 157 159 108 124 104 196 195 7 21 33 13 360 38 106 114 144 152 130 94 355 335 350 351 250 48 39 27 77 108 51 76 81 80 109 115 169 153 129 115 134 117 66 41 34 32 31 29 26 21 20 21 19 16 17
96 104 106 106 83 2 12 35 355 67 79 25 45 72 59 88 134 163 98 50 39 72 110 121 113 87 72 72 63 50 44 64 89 138 152 129 101 108 91 92 111 30 23 52 22 20 70 127 132 181 189 143 155 275 302 297 212 184 101 43 18 58 66 32 114 93 45 78 216 208 140 114 110 139 131 71 43 32 30 27 24 22 19 18 17 14 11 11
Height
1518 1517 1516 1515 1514 1514 1513 1512 1511 1511 1510 1509 1508 1508 1506 1506 1505 1505 1504 1503 1502 1501 1501 1501 1500 1500 1500 1499 1499 1499 1498 1498 1497 1496 1496 1496 1497 1499 1501 1503 1504 1506 1508 1510 1512 1513 1515 1516 1518 1519 1521 1523 1525 1526 1527 1528 1528 1528 1529 1532 1532 1531 1528 1523 1521 1521 1521 1521 1521 1523 1524 1525 1527 1528 1528 1529 1531 1532 1533 1534 1535 1536 1537 1538 1539 1541 1545 1548
1517 1516 1515 1514 1513 1513 1512 1511 1511 1510 1509 1508 1508 1507 1506 1505 1504 1504 1503 1503 1502 1500 1500 1500 1499 1499 1499 1498 1498 1498 1497 1497 1496 1494 1494 1495 1495 1497 1499 1501 1503 1505 1507 1508 1510 1511 1513 1515 1517 1519 1521 1523 1525 1526 1527 1527 1528 1528 1529 1530 1530 1527 1524 1519 1519 1519 1518 1520 1520 1523 1525 1525 1526 1527 1528 1529 1531 1532 1533 1534 1535 1537 1538 1539 1540 1543 1547 1549
1516 1515 1514 1513 1512 1512 1511 1510 1510 1509 1508 1507 1507 1506 1505 1504 1504 1503 1502 1502 1501 1500 1499 1499 1499 1498 1498 1498 1497 1497 1496 1496 1494 1493 1493 1493 1494 1496 1498 1499 1502 1504 1506 1508 1509 1512 1513 1515 1517 1519 1521 1523 1525 1526 1527 1527 1527 1527 1528 1529 1526 1522 1520 1518 1518 1518 1518 1519 1520 1523 1525 1525 1526 1527 1528 1528 1530 1531 1531 1532 1534 1536 1539 1540 1541 1544 1547 1550
1516 1514 1513 1512 1511 1511 1510 1509 1509 1508 1507 1506 1506 1505 1504 1504 1503 1502 1501 1501 1500 1499 1498 1498 1497 1497 1497 1497 1497 1496 1496 1494 1492 1491 1492 1492 1493 1494 1496 1499 1501 1504 1506 1509 1510 1513 1515 1516 1518 1519 1521 1523 1525 1526 1526 1526 1526 1525 1526 1526 1522 1520 1521 1519 1518 1518 1518 1519 1520 1522 1524 1525 1526 1528 1528 1527 1530 1531 1530 1531 1533 1535 1538 1540 1542 1544 1547 1550
1515 1514 1513 1512 1511 1510 1509 1508 1508 1507 1506 1505 1505 1504 1503 1503 1502 1501 1500 1500 1499 1498 1497 1497 1496 1496 1496 1496 1496 1496 1496 1494 1491 1491 1491 1491 1492 1494 1496 1498 1501 1503 1506 1509 1511 1513 1515 1516 1518 1520 1521 1522 1524 1525 1525 1525 1525 1525 1523 1521 1520 1520 1521 1519 1518 1519 1519 1520 1521 1522 1523 1525 1526 1528 1528 1527 1529 1529 1529 1531 1533 1535 1537 1538 1541 1544 1547 1549
1515 1514 1513 1512 1511 1510 1509 1508 1507 1506 1505 1505 1504 1503 1502 1501 1501 1500 1499 1499 1498 1497 1497 1496 1496 1496 1495 1495 1496 1496 1496 1494 1491 1491 1491 1491 1492 1493 1495 1498 1501 1503 1505 1508 1510 1512 1514 1516 1518 1519 1520 1521 1523 1523 1523 1524 1525 1525 1521 1519 1519 1520 1519 1518 1518 1519 1519 1520 1520 1521 1522 1524 1526 1527 1528 1528 1528 1528 1528 1531 1533 1535 1537 1538 1540 1543 1546 1549
1514 1513 1512 1511 1510 1509 1508 1507 1506 1505 1504 1504 1503 1502 1501 1500 1499 1499 1498 1498 1497 1496 1496 1496 1495 1495 1495 1495 1495 1495 1495 1493 1492 1492 1491 1491 1492 1493 1495 1498 1500 1502 1505 1507 1509 1511 1513 1515 1517 1518 1519 1521 1522 1522 1522 1523 1524 1525 1522 1518 1518 1518 1518 1518 1518 1518 1519 1519 1520 1521 1522 1524 1525 1527 1528 1529 1528 1529 1530 1531 1533 1535 1538 1540 1541 1544 1547 1549
1514 1513 1512 1511 1510 1509 1508 1506 1505 1504 1503 1502 1502 1501 1500 1499 1498 1498 1497 1497 1496 1495 1495 1495 1495 1494 1494 1494 1494 1494 1494 1493 1493 1492 1492 1491 1492 1494 1495 1497 1500 1502 1504 1507 1508 1510 1512 1514 1516 1517 1519 1520 1520 1521 1522 1523 1523 1523 1521 1517 1517 1517 1516 1516 1517 1518 1518 1519 1520 1522 1522 1524 1526 1527 1527 1528 1529 1530 1530 1532 1534 1536 1538 1541 1542 1544 1547 1549
1514 1512 1511 1510 1509 1508 1507 1505 1504 1503 1502 1501 1500 1499 1499 1498 1497 1496 1496 1495 1495 1494 1494 1494 1494 1494 1493 1493 1494 1494 1493 1493 1493 1493 1493 1493 1493 1495 1496 1497 1500 1502 1504 1507 1509 1510 1512 1514 1515 1517 1518 1519 1519 1520 1521 1523 1522 1520 1519 1518 1516 1515 1514 1515 1515 1516 1518 1519 1520 1521 1523 1525 1526 1527 1528 1529 1530 1530 1531 1533 1534 1536 1539 1541 1543 1545 1547 1549
1513 1512 1510 1509 1508 1507 1505 1504 1503 1502 1501 1500 1499 1498 1497 1497 1496 1495 1494 1494 1494 1494 1493 1493 1493 1493 1493 1493 1494 1493 1492 1493 1493 1494 1494 1494 1495 1495 1497 1498 1500 1502 1505 1507 1509 1511 1512 1513 1515 1517 1518 1519 1519 1520 1521 1522 1521 1518 1518 1517 1516 1514 1513 1513 1514 1516 1518 1519 1520 1521 1523 1525 1526 1528 1528 1529 1530 1531 1532 1533 1535 1537 1539 1541 1543 1545 1547 1549
1513 1511 1510 1508 1507 1505 1504 1503 1502 1501 1500 1499 1497 1496 1496 1495 1494 1494 1493 1493 1493 1493 1493 1492 1493 1493 1493 1493 1493 1492 1492 1493 1493 1494 1495 1496 1496 1497 1498 1500 1501 1503 1505 1507 1509 1511 1512 1514 1516 1517 1518 1519 1519 1520 1520 1520 1519 1518 1518 1516 1515 1514 1513 1513 1514 1516 1517 1519 1521 1521 1523 1525 1527 1528 1527 1527 1529 1531 1532 1533 1535 1537 1539 1541 1543 1545 1547 1549
1512 1510 1509 1507 1506 1504 1503 1502 1501 1500 1499 1497 1496 1495 1495 1494 1493 1493 1492 1492 1492 1492 1492 1492 1492 1492 1492 1492 1492 1492 1492 1493 1494 1495 1496 1497 1498 1498 1499 1501 1503 1504 1505 1507 1509 1511 1513 1515 1517 1518 1518 1518 1519 1520 1519 1519 1518 1517 1517 1517 1515 1513 1515 1515 1515 1517 1517 1519 1521 1521 1526 1527 1526 1526 1525 1527 1529 1531 1532 1533 1535 1537 1539 1541 1543 1545 1547 1549
1511 1509 1508 1506 1505 1503 1502 1501 1500 1499 1498 1496 1495 1494 1494 1493 1492 1492 1491 1491 1491 1491 1492 1492 1492 1492 1492 1492 1491 1491 1492 1493 1494 1495 1496 1497 1498 1499 1500 1502 1503 1505 1507 1508 1510 1511 1514 1515 1516 1517 1518 1518 1518 1519 1518 1517 1517 1517 1516 1517 1517 1516 1518 1517 1516 1518 1517 1519 1520 1521 1529 1527 1523 1523 1524 1526 1528 1530 1532 1533 1535 1537 1539 1541 1543 1545 1547 1548
1510 1509 1507 1505 1504 1503 1501 1500 1499 1498 1496 1495 1494 1494 1493 1492 1491 1491 1491 1491 1491 1491 1491 1491 1491 1491 1491 1491 1490 1491 1492 1493 1494 1495 1496 1497 1498 1499 1500 1502 1503 1505 1507 1509 1511 1512 1514 1515 1517 1517 1518 1518 1518 1518 1517 1517 1516 1517 1517 1517 1519 1520 1520 1517 1516 1518 1519 1521 1519 1522 1529 1525 1520 1522 1523 1525 1527 1529 1531 1533 1535 1537 1539 1541 1543 1545 1546 1547
1510 1508 1506 1504 1503 1502 1500 1499 1498 1496 1495 1494 1494 1493 1492 1491 1490 1490 1490 1490 1490 1490 1491 1491 1491 1491 1491 1490 1490 1491 1492 1493 1494 1495 1496 1497 1498 1499 1500 1501 1503 1505 1507 1509 1511 1513 1514 1515 1517 1517 1518 1518 1518 1518 1518 1517 1516 1517 1520 1521 1521 1521 1521 1519 1516 1517 1519 1521 1519 1523 1529 1524 1520 1521 1522 1525 1527 1528 1530 1532 1534 1536 1538 1540 1542 1544 1546 1547
1509 1507 1505 1503 1502 1501 1499 1498 1497 1495 1494 1493 1493 1492 1491 1490 1490 1490 1490 1490 1490 1490 1490 1491 1491 1491 1490 1489 1490 1491 1492 1492 1494 1495 1496 1497 1498 1499 1500 1501 1503 1504 1507 1509 1510 1512 1514 1515 1517 1517 1518 1517 1518 1518 1519 1520 1519 1518 1520 1522 1522 1522 1522 1521 1518 1516 1517 1520 1520 1522 1526 1524 1522 1521 1522 1525 1526 1528 1530 1531 1534 1535 1537 1539 1541 1544 1545 1547
1507 1506 1504 1502 1501 1500 1498 1497 1496 1494 1494 1493 1493 1492 1491 1490 1490 1490 1490 1490 1490 1490 1490 1490 1490 1491 1489 1488 1489 1491 1491 1492 1493 1494 1495 1497 1498 1499 1500 1501 1503 1505 1506 1509 1510 1511 1513 1516 1517 1517 1517 1517 1517 1518 1522 1526 1524 1521 1520 1521 1523 1523 1522 1521 1520 1517 1515 1519 1522 1522 1524 1524 1522 1521 1523 1525 1526 1528 1529 1531 1533 1534 1537 1538 1540 1542 1544 1546
1506 1504 1503 1501 1500 1498 1497 1496 1494 1493 1493 1492 1492 1491 1491 1490 1490 1490 1489 1489 1489 1489 1490 1489 1490 1491 1489 1488 1489 1490 1491 1491 1492 1493 1495 1496 1498 1500 1500 1501 1502 1504 1506 1509 1510 1511 1513 1515 1516 1517 1517 1518 1518 1518 1523 1525 1521 1520 1521 1521 1523 1523 1522 1522 1520 1517 1516 1519 1522 1524 1525 1523 1521 1521 1523 1525 1526 1527 1528 1530 1532 1534 1536 1537 1539 1541 1543 1544
1504 1502 1501 1500 1498 1497 1495 1494 1493 1492 1492 1492 1491 1491 1490 1490 1490 1489 1489 1489 1489 1488 1488 1488 1488 1488 1488 1487 1488 1489 1489 1490 1491 1492 1494 1495 1497 1499 1501 1502 1502 1504 1506 1507 1509 1511 1512 1514 1516 1518 1517 1516 1517 1517 1518 1518 1516 1518 1520 1520 1522 1522 1522 1521 1519 1516 1516 1521 1523 1523 1524 1521 1520 1521 1522 1524 1526 1527 1529 1530 1532 1533 1535 1537 1538 1539 1541 1543
1502 1500 1499 1498 1496 1495 1493 1492 1492 1491 1491 1491 1491 1490 1490 1489 1489 1488 1488 1487 1487 1486 1486 1487 1486 1486 1486 1486 1487 1488 1488 1489 1490 1491 1493 1494 1496 1499 1501 1502 1503 1505 1505 1505 1508 1510 1510 1513 1515 1514 1513 1513 1515 1515 1515 1515 1516 1518 1519 1521 1523 1523 1521 1519 1518 1515 1514 1521 1522 1520 1521 1520 1519 1519 1519 1522 1525 1526 1528 1529 1530 1531 1532 1534 1536 1538 1539 1541
1500 1498 1497 1495 1494 1493 1491 1491 1490 1490 1490 1490 1490 1490 1489 1489 1489 1488 1488 1486 1485 1485 1485 1485 1485 1485 1485 1485 1486 1487 1488 1489 1490 1491 1493 1494 1496 1498 1501 1502 1503 1505 1505 1504 1507 1509 1510 1512 1512 1510 1510 1512 1513 1514 1515 1517 1517 1518 1519 1521 1522 1523 1521 1518 1519 1517 1514 1520 1520 1518 1522 1521 1517 1517 1517 1520 1522 1523 1524 1526 1527 1527 1529 1531 1533 1536 1538 1540
1498 1496 1494 1493 1492 1490 1489 1489 1489 1489 1489 1489 1489 1489 1489 1489 1489 1489 1488 1486 1484 1483 1484 1484 1484 1484 1484 1485 1486 1486 1487 1488 1489 1490 1491 1494 1495 1497 1500 1502 1502 1503 1505 1505 1506 1510 1513 1511 1509 1508 1509 1511 1514 1514 1516 1518 1518 1519 1519 1521 1522 1521 1520 1519 1519 1517 1515 1519 1520 1519 1522 1519 1514 1514 1515 1516 1517 1518 1519 1521 1522 1524 1527 1530 1531 1534 1536 1539
1497 1494 1493 1492 1490 1489 1488 1488 1488 1488 1488 1489 1489 1489 1489 1489 1488 1488 1488 1487 1484 1482 1482 1482 1483 1483 1483 1484 1485 1485 1486 1487 1488 1489 1491 1493 1495 1496 1498 1500 1501 1502 1505 1505 1505 1510 1513 1509 1507 1508 1509 1512 1515 1516 1516 1518 1518 1519 1519 1520 1521 1520 1521 1521 1520 1519 1517 1518 1518 1519 1520 1517 1512 1512 1512 1512 1513 1514 1517 1518 1520 1523 1526 1527 1528 1531 1534 1536
1495 1493 1492 1490 1489 1488 1487 1487 1487 1487 1487 1488 1488 1488 1489 1488 1489 1488 1488 1487 1484 1482 1481 1481 1482 1482 1483 1484 1484 1485 1486 1486 1487 1488 1490 1492 1494 1496 1497 1498 1500 1502 1504 1504 1504 1507 1508 1506 1505 1508 1510 1512 1515 1516 1517 1517 1518 1518 1519 1519 1520 1519 1520 1520 1521 1520 1517 1516 1517 1519 1522 1517 1513 1515 1512 1510 1511 1513 1515 1518 1520 1521 1524 1526 1528 1530 1533 1534
1494 1493 1491 1490 1489 1487 1486 1486 1486 1486 1487 1487 1488 1488 1488 1488 1488 1488 1488 1488 1486 1482 1480 1481 1481 1482 1482 1483 1484 1484 1484 1486 1487 1488 1489 1491 1493 1495 1496 1497 1499 1501 1504 1505 1505 1506 1506 1504 1505 1508 1511 1512 1514 1516 1516 1516 1517 1518 1518 1517 1517 1518 1519 1520 1521 1521 1521 1522 1518 1520 1528 1523 1513 1514 1512 1509 1511 1512 1513 1515 1517 1519 1523 1525 1526 1528 1531 1533
1494 1493 1491 1490 1489 1487 1486 1485 1485 1486 1487 1487 1488 1488 1488 1488 1488 1488 1488 1489 1487 1482 1480 1481 1481 1481 1482 1482 1483 1483 1485 1487 1487 1488 1489 1491 1492 1493 1495 1497 1497 1500 1503 1504 1505 1505 1504 1505 1505 1507 1510 1512 1514 1515 1515 1515 1518 1520 1516 1513 1515 1517 1518 1520 1522 1523 1525 1525 1519 1518 1529 1528 1516 1512 1511 1509 1511 1512 1512 1513 1514 1517 1521 1522 1523 1525 1527 1530
1494 1493 1492 1490 1489 1487 1486 1485 1486 1486 1486 1487 1488 1487 1488 1487 1488 1488 1488 1493 1492 1484 1481 1482 1481 1481 1481 1482 1482 1483 1487 1488 1487 1489 1490 1491 1492 1492 1494 1496 1497 1499 1500 1503 1508 1506 1502 1505 1506 1506 1509 1512 1513 1514 1513 1513 1517 1519 1513 1512 1515 1515 1517 1520 1521 1524 1524 1523 1521 1517 1523 1528 1522 1514 1512 1511 1513 1514 1514 1514 1513 1515 1518 1519 1521 1522 1524 1527
1495 1494 1492 1491 1489 1488 1487 1486 1486 1486 1486 1487 1487 1487 1487 1487 1488 1487 1490 1499 1495 1483 1482 1482 1480 1481 1481 1482 1482 1483 1486 1486 1487 1490 1490 1490 1492 1491 1492 1494 1495 1497 1498 1502 1508 1504 1501 1504 1506 1505 1508 1510 1510 1509 1509 1511 1514 1514 1510 1511 1514 1514 1516 1517 1519 1523 1524 1525 1526 1520 1520 1527 1526 1517 1514 1513 1516 1519 1518 1517 1516 1516 1518 1518 1519 1520 1522 1524
1496 1494 1493 1491 1490 1489 1487 1487 1487 1486 1487 1487 1486 1487 1486 1486 1488 1486 1492 1500 1492 1482 1483 1482 1480 1482 1482 1482 1484 1483 1484 1485 1488 1491 1490 1490 1491 1490 1492 1494 1494 1496 1497 1499 1502 1501 1501 1502 1502 1503 1506 1507 1506 1505 1506 1509 1511 1509 1509 1512 1513 1514 1516 1517 1520 1522 1526 1532 1530 1520 1518 1525 1527 1524 1520 1520 1522 1523 1521 1517 1514 1514 1516 1517 1518 1519 1520 1522
1496 1494 1493 1491 1490 1489 1488 1487 1487 1487 1487 1486 1487 1486 1486 1487 1488 1490 1499 1500 1489 1484 1484 1482 1482 1483 1482 1483 1485 1485 1486 1487 1489 1490 1490 1492 1492 1491 1493 1495 1495 1496 1498 1498 1499 1500 1501 1501 1501 1503 1505 1504 1504 1504 1504 1506 1507 1507 1510 1513 1514 1517 1517 1519 1521 1521 1531 1538 1526 1517 1516 1519 1529 1532 1527 1526 1527 1524 1521 1517 1513 1511 1511 1513 1515 1517 1519 1521
1496 1494 1493 1491 1490 1489 1488 1487 1487 1487 1486 1486 1486 1485 1486 1487 1487 1495 1502 1496 1488 1486 1484 1483 1484 1483 1484 1485 1487 1489 1488 1490 1491 1491 1493 1495 1494 1494 1495 1497 1498 1498 1500 1501 1500 1501 1501 1501 1502 1504 1505 1504 1503 1504 1505 1505 1505 1507 1511 1513 1518 1523 1521 1524 1526 1526 1538 1539 1522 1518 1518 1518 1531 1537 1529 1527 1525 1521 1520 1518 1515 1511 1509 1509 1510 1513 1516 1519
1496 1495 1493 1491 1490 1489 1488 1488 1487 1486 1486 1485 1485 1485 1486 1489 1493 1500 1500 1492 1491 1491 1486 1486 1485 1485 1486 1486 1491 1493 1491 1494 1496 1495 1498 1500 1500 1503 1505 1507 1507 1505 1506 1505 1503 1502 1503 1503 1504 1505 1504 1504 1504 1504 1506 1508 1507 1508 1510 1513 1523 1531 1532 1536 1536 1534 1537 1531 1520 1522 1521 1523 1535 1537 1529 1527 1524 1521 1521 1518 1515 1512 1508 1506 1506 1509 1512 1515
1497 1495 1493 1492 1491 1489 1488 1487 1486 1486 1485 1484 1485 1485 1486 1493 1501 1503 1497 1493 1494 1492 1488 1488 1488 1487 1487 1488 1495 1496 1493 1498 1500 1499 1502 1503 1504 1509 1510 1511 1511 1509 1508 1507 1504 1504 1507 1507 1505 1505 1505 1505 1505 1503 1505 1508 1508 1509 1510 1513 1523 1531 1539 1545 1543 1539 1536 1525 1520 1522 1522 1528 1537 1534 1528 1527 1524 1522 1520 1518 1515 1512 1508 1505 1504 1506 1509 1512
1497 1495 1494 1492 1490 1489 1488 1486 1485 1484 1484 1484 1485 1485 1489 1500 1505 1501 1497 1496 1494 1490 1489 1491 1490 1488 1489 1492 1498 1497 1497 1503 1503 1501 1503 1504 1508 1512 1511 1510 1510 1510 1508 1507 1508 1508 1512 1513 1509 1508 1508 1506 1506 1504 1504 1505 1505 1506 1505 1507 1514 1518 1525 1535 1534 1533 1531 1524 1522 1524 1524 1528 1534 1533 1528 1525 1523 1521 1520 1518 1514 1511 1508 1505 1504 1505 1507 1510
1497 1495 1494 1492 1490 1489 1487 1486 1485 1483 1484 1483 1484 1488 1497 1508 1508 1502 1500 1497 1493 1492 1491 1491 1490 1490 1493 1497 1499 1497 1497 1504 1506 1505 1506 1510 1515 1518 1517 1515 1513 1512 1510 1509 1512 1512 1514 1515 1511 1509 1510 1508 1508 1507 1505 1505 1505 1507 1505 1506 1510 1507 1508 1519 1524 1520 1517 1520 1525 1526 1524 1523 1525 1527 1524 1522 1523 1520 1519 1517 1513 1511 1509 1506 1505 1506 1507 1509
1497 1495 1494 1492 1490 1488 1486 1486 1484 1484 1484 1481 1485 1496 1505 1508 1506 1503 1501 1496 1495 1495 1492 1491 1492 1494 1498 1500 1501 1499 1497 1501 1506 1508 1512 1516 1518 1520 1520 1518 1516 1515 1513 1511 1514 1514 1515 1515 1511 1509 1509 1508 1508 1507 1506 1506 1506 1506 1508 1509 1509 1504 1504 1514 1523 1520 1516 1521 1527 1526 1525 1525 1525 1525 1522 1521 1522 1519 1518 1517 1514 1513 1511 1508 1508 1508 1508 1508
1497 1495 1494 1492 1490 1488 1487 1486 1485 1485 1483 1481 1489 1503 1506 1504 1504 1502 1500 1497 1496 1496 1493 1495 1499 1501 1503 1503 1505 1504 1500 1502 1506 1509 1516 1520 1520 1522 1522 1520 1517 1516 1515 1514 1515 1515 1514 1514 1512 1511 1510 1508 1508 1507 1505 1505 1505 1504 1506 1507 1506 1507 1508 1511 1520 1526 1522 1523 1528 1530 1532 1534 1534 1531 1526 1523 1523 1521 1520 1518 1517 1515 1512 1510 1510 1509 1509 1507
1497 1495 1494 1493 1492 1490 1488 1487 1487 1485 1483 1485 1496 1504 1504 1503 1503 1501 1500 1498 1496 1495 1494 1498 1502 1504 1505 1505 1510 1509 1503 1505 1510 1513 1518 1521 1523 1525 1524 1522 1518 1516 1516 1514 1513 1514 1515 1514 1513 1511 1512 1510 1506 1505 1507 1506 1505 1504 1505 1505 1507 1511 1513 1512 1519 1525 1523 1525 1533 1537 1538 1540 1542 1539 1532 1530 1528 1526 1524 1521 1519 1517 1515 1514 1513 1510 1509 1506
1497 1495 1495 1495 1494 1492 1490 1489 1488 1485 1484 1493 1502 1504 1503 1503 1502 1500 1499 1498 1496 1496 1497 1501 1502 1504 1506 1507 1511 1511 1507 1509 1514 1517 1520 1524 1526 1526 1525 1524 1520 1516 1516 1514 1513 1516 1515 1515 1514 1511 1509 1510 1508 1510 1517 1516 1509 1505 1505 1506 1508 1510 1511 1511 1513 1514 1516 1525 1535 1538 1540 1544 1544 1541 1537 1535 1532 1529 1528 1525 1522 1521 1519 1518 1516 1513 1510 1507
1497 1495 1496 1497 1495 1494 1493 1490 1489 1487 1491 1500 1505 1504 1504 1504 1502 1501 1499 1498 1497 1497 1499 1502 1503 1505 1509 1510 1510 1512 1512 1514 1517 1519 1522 1526 1527 1526 1525 1525 1522 1518 1516 1515 1515 1516 1514 1514 1517 1514 1509 1513 1519 1523 1528 1525 1517 1512 1512 1514 1515 1514 1512 1511 1514 1515 1515 1521 1527 1532 1544 1549 1543 1539 1537 1536 1534 1532 1530 1528 1525 1524 1522 1520 1518 1515 1512 1509
1497 1497 1498 1497 1496 1496 1493 1491 1493 1495 1499 1504 1506 1505 1505 1505 1504 1503 1501 1499 1499 1499 1501 1503 1504 1506 1510 1511 1512 1514 1516 1518 1520 1521 1524 1527 1528 1528 1526 1525 1524 1520 1517 1516 1516 1517 1516 1515 1518 1520 1518 1522 1529 1531 1529 1527 1525 1521 1520 1523 1523 1520 1516 1513 1518 1522 1519 1521 1521 1524 1543 1552 1542 1538 1538 1535 1535 1533 1532 1530 1527 1525 1524 1521 1519 1516 1513 1510
1498 1499 1500 1498 1497 1496 1494 1495 1499 1501 1503 1506 1508 1508 1507 1506 1505 1504 1503 1501 1501 1501 1502 1503 1506 1509 1511 1512 1514 1515 1517 1521 1523 1524 1526 1529 1529 1530 1528 1525 1524 1521 1519 1519 1520 1519 1519 1518 1521 1526 1528 1529 1531 1530 1529 1528 1527 1524 1524 1526 1524 1523 1521 1517 1519 1522 1521 1526 1523 1520 1539 1551 1544 1539 1538 1536 1537 1535 1533 1532 1529 1527 1526 1523 1520 1517 1514 1512
1500 1502 1501 1499 1498 1497 1496 1500 1504 1504 1506 1509 1510 1509 1509 1509 1508 1506 1504 1504 1503 1504 1505 1507 1509 1511 1512 1513 1515 1516 1518 1523 1527 1527 1528 1530 1529 1529 1529 1525 1523 1522 1520 1521 1522 1520 1521 1524 1527 1530 1532 1530 1528 1529 1529 1528 1527 1526 1527 1528 1525 1526 1526 1522 1523 1523 1522 1528 1525 1523 1540 1551 1543 1540 1539 1537 1537 1536 1534 1534 1531 1529 1527 1524 1522 1519 1516 1514
1503 1503 1502 1499 1498 1497 1498 1504 1507 1507 1509 1510 1509 1510 1510 1510 1510 1510 1508 1508 1508 1508 1509 1512 1513 1513 1515 1515 1516 1518 1519 1523 1529 1530 1529 1530 1530 1529 1528 1526 1524 1523 1522 1523 1523 1521 1523 1529 1530 1531 1534 1535 1531 1529 1529 1528 1529 1531 1532 1531 1528 1528 1527 1526 1526 1524 1526 1535 1531 1526 1539 1547 1542 1541 1540 1537 1537 1536 1535 1535 1533 1531 1529 1526 1524 1521 1518 1516
1504 1504 1504 1502 1499 1498 1502 1507 1508 1509 1511 1511 1511 1513 1512 1512 1513 1513 1512 1512 1512 1512 1512 1515 1516 1515 1516 1516 1517 1520 1519 1520 1526 1530 1530 1530 1530 1529 1528 1526 1525 1524 1524 1525 1523 1522 1527 1535 1532 1528 1531 1534 1533 1533 1534 1533 1534 1535 1535 1533 1531 1530 1529 1528 1526 1525 1530 1539 1536 1530 1536 1542 1541 1540 1539 1538 1538 1537 1537 1536 1534 1533 1531 1529 1527 1524 1522 1519
1505 1506 1507 1506 1503 1503 1506 1509 1508 1509 1512 1512 1514 1516 1516 1516 1516 1515 1514 1514 1515 1514 1515 1517 1518 1517 1517 1518 1520 1523 1522 1521 1523 1528 1531 1531 1530 1530 1529 1527 1526 1526 1525 1525 1524 1524 1530 1538 1537 1532 1529 1531 1535 1539 1540 1539 1538 1538 1538 1536 1533 1532 1532 1529 1527 1528 1532 1536 1538 1540 1540 1540 1541 1541 1540 1540 1539 1538 1539 1537 1536 1535 1533 1531 1529 1527 1525 1522
1506 1510 1512 1510 1509 1508 1509 1510 1510 1511 1512 1513 1516 1520 1520 1519 1518 1517 1516 1516 1517 1517 1517 1519 1519 1519 1520 1521 1523 1526 1527 1525 1525 1529 1533 1533 1532 1531 1530 1529 1528 1527 1526 1525 1525 1526 1531 1537 1539 1538 1537 1538 1540 1542 1541 1540 1540 1541 1541 1538 1536 1535 1533 1531 1530 1534 1535 1534 1539 1545 1544 1542 1544 1543 1541 1542 1541 1540 1540 1539 1538 1537 1535 1534 1531 1529 1527 1524
1509 1512 1514 1513 1514 1514 1514 1514 1513 1513 1513 1514 1518 1521 1521 1521 1521 1521 1519 1519 1519 1519 1519 1522 1523 1522 1523 1523 1524 1528 1530 1530 1531 1534 1534 1533 1533 1532 1531 1531 1529 1528 1528 1527 1527 1528 1532 1537 1539 1539 1541 1543 1542 1542 1541 1540 1541 1542 1541 1540 1538 1537 1536 1536 1537 1538 1537 1536 1540 1545 1544 1544 1545 1542 1541 1543 1542 1542 1542 1541 1541 1539 1537 1535 1533 1531 1529 1527
1510 1513 1514 1514 1515 1517 1517 1517 1516 1515 1514 1516 1519 1522 1523 1522 1523 1524 1523 1521 1522 1522 1521 1524 1527 1526 1525 1525 1525 1529 1532 1531 1533 1535 1534 1534 1535 1534 1534 1533 1532 1531 1530 1529 1530 1531 1533 1538 1540 1540 1542 1543 1543 1543 1542 1541 1541 1541 1540 1540 1540 1539 1539 1539 1539 1538 1538 1539 1540 1542 1544 1545 1544 1543 1543 1543 1543 1543 1543 1543 1541 1539 1538 1537 1535 1533 1532 1530
1512 1513 1514 1515 1516 1518 1518 1518 1517 1516 1517 1519 1521 1524 1525 1524 1525 1525 1525 1525 1525 1525 1524 1526 1528 1528 1527 1527 1526 1530 1532 1531 1532 1534 1534 1535 1536 1535 1536 1536 1534 1532 1531 1531 1532 1532 1533 1539 1542 1541 1542 1545 1545 1544 1542 1542 1543 1542 1541 1540 1541 1541 1541 1540 1540 1539 1539 1541 1541 1542 1545 1547 1546 1544 1544 1544 1544 1544 1543 1542 1541 1540 1539 1537 1536 1535 1534 1532
1513 1514 1515 1515 1518 1520 1520 1520 1519 1519 1520 1521 1523 1525 1525 1526 1526 1526 1527 1527 1527 1527 1527 1528 1529 1529 1529 1529 1529 1531 1532 1532 1532 1533 1533 1534 1534 1534 1535 1535 1535 1534 1533 1534 1534 1533 1534 1540 1543 1541 1542 1545 1547 1545 1544 1544 1544 1543 1542 1542 1542 1541 1541 1540 1540 1540 1540 1542 1542 1541 1542 1545 1546 1545 1545 1545 1545 1544 1543 1543 1542 1541 1540 1539 1537 1537 1535 1534
1515 1516 1516 1515 1519 1522 1522 1521 1521 1521 1523 1524 1525 1525 1525 1526 1526 1526 1527 1529 1529 1528 1529 1529 1529 1530 1531 1532 1533 1533 1534 1533 1533 1533 1534 1534 1534 1534 1534 1535 1535 1535 1535 1535 1536 1536 1537 1539 1541 1542 1542 1545 1547 1547 1545 1544 1543 1541 1540 1542 1543 1542 1541 1541 1541 1542 1542 1542 1541 1540 1540 1544 1546 1545 1545 1545 1545 1544 1544 1543 1543 1542 1541 1540 1539 1538 1537 1536